This demonstration page uses our WeatherBlox Daily Observations layout. Learn more.

Left ArrowRight Arrow

41.86663, -103.66717

Hourly Observations for November 18, 2020

Temp ( °F °C ) Dew Point ( °F °C ) Humidity (%) Winds ( mph kmh ) Pressure ( in mb ) Visibility ( mi km ) Precip ( " mm )
12:53 am 00:53 Clear 33 0.6 26 -3.3 75 75 N 5 7 29.94 1014 10 16 0.00 0.00
1:53 am 01:53 Clear 32 0 26 -3.3 79 79 E 3 6 29.91 1013 10 16 0.00 0.00
2:53 am 02:53 Clear 37 2.8 27 -2.8 67 67 SE 3 6 29.88 1012 10 16 0.00 0.00
3:53 am 03:53 Clear 33 0.6 27 -2.8 78 78 ENE 3 6 29.89 1012 10 16 0.00 0.00
4:53 am 04:53 Clear 39 3.9 29 -1.7 67 67 ENE 7 11 29.90 1012 10 16 0.00 0.00
5:53 am 05:53 Clear 38 3.3 29 -1.7 70 70 E 3 6 29.90 1012 10 16 0.00 0.00
6:53 am 06:53 Sunny 39 3.9 29 -1.7 67 67 E 3 6 29.89 1012 10 16 0.00 0.00
7:53 am 07:53 Sunny 40 4.4 29 -1.7 65 65 Calm 29.89 1012 10 16 0.00 0.00
8:53 am 08:53 Sunny 50 10 30 -1.1 46 46 ESE 3 6 29.88 1012 10 16 0.00 0.00
9:53 am 09:53 Sunny 50 10 35 1.7 57 57 Calm 29.88 1012 10 16 0.00 0.00
10:53 am 10:53 Sunny 58 14.4 34 1.1 41 41 ESE 5 7 29.85 1011 10 16 0.00 0.00
11:53 am 11:53 Sunny 67 19.4 35 1.7 31 31 WNW 3 6 29.80 1009 10 16 0.00 0.00
12:53 pm 12:53 Sunny 73 22.8 28 -2.2 19 19 SW 13 20 29.76 1008 10 16 0.00 0.00
1:53 pm 13:53 Sunny 75 23.9 26 -3.3 16 16 SSW 14 22 29.73 1007 10 16 0.00 0.00
2:53 pm 14:53 Sunny 73 22.8 26 -3.3 17 17 SSW 16 26 29.71 1006 10 16 0.00 0.00
3:53 pm 15:53 Sunny 69 20.6 26 -3.3 20 20 S 13 20 29.74 1007 10 16 0.00 0.00
4:53 pm 16:53 Clear 61 16.1 27 -2.8 27 27 S 10 17 29.75 1007 10 16 0.00 0.00
5:53 pm 17:53 Clear 53 11.7 27 -2.8 37 37 ENE 7 11 29.78 1009 10 16 0.00 0.00
6:53 pm 18:53 Clear 47 8.3 27 -2.8 46 46 Calm 29.80 1009 10 16 0.00 0.00
7:53 pm 19:53 Clear 49 9.4 28 -2.2 44 44 Calm 29.79 1009 10 16 0.00 0.00
8:53 pm 20:53 Clear 44 6.7 28 -2.2 53 53 Calm 29.79 1009 10 16 0.00 0.00
9:53 pm 21:53 Clear 46 7.8 28 -2.2 50 50 NW 5 7 29.80 1009 10 16 0.00 0.00
10:53 pm 22:53 Clear 46 7.8 28 -2.2 50 50 WNW 10 17 29.80 1009 10 16 0.00 0.00
11:53 pm 23:53 Clear 49 9.4 33 0.6 55 55 WNW 10 17 29.78 1009 10 16 0.00 0.00

Powered by AerisWeather